Weather in Smirnoye

Russia / Tyumen Oblast     55°49′01″N   68°59′06″E
temp.,
°C
wind,
m/s
gust,
m/s
humid.,
%
clouds,
%
prec.,
mm/h
press.,
hPa
HPBL,
m
22 january, sat
sat2223:00−22sw22998 0.0 10289
02:00−24wsw111007 0.0 10299
05:00−23wsw11100100 0.0 10309
08:00−22sw1199100 0.0 103110
11:00−17ssw2292100 0.0 103153
14:00−13wsw118960 0.0 103246
17:00−19sw229649 0.0 10339
20:00−22wsw229921 0.0 10359
23 january, sun
sun2323:00−23wsw1110033 0.0 10359
02:00−23wsw1110060 0.0 10369
05:00−23wsw1110052 0.0 10379
08:00−23nw11100100 0.0 10379
11:00−17ssw119572 0.0 103833
14:00−13s119323 0.0 103845
17:00−19wsw119979 0.0 10409
20:00−21wsw2210050 0.0 10409
24 january, mon
mon2423:00−22wsw2210051 0.0 10419
02:00−21wsw2210059 0.0 104118
05:00−22sw2210051 0.0 104121
08:00−18sw3395100 0.0 104148
11:00−14sw3586100 0.0 1040121
14:00−11sw3686100 0.0 1039185
17:00−13ssw3690100 0.0 1038119
20:00−12sw3689100 0.0 1037156
25 january, tue
tue2523:00−14sw3790100 0.0 1035142
02:00−12sw3789100 0.0 1033179
05:00−11wsw379673 0.4 1031217
08:00−12w369785 0.1 1030122
11:00−12w369788 0.1 1030142
14:00−12w259678 0.0 1029176
17:00−18w229953 0.0 102912
20:00−21w2210096 0.0 103013
26 january, wed
wed2623:00−22wnw11100100 0.1 10309
02:00−23w11100100 0.0 10309
05:00−24w11100100 0.1 10319
08:00−25sse11100100 0.0 10319
11:00−17ssw119879 0.0 103151
14:00−14s22945 0.0 103291
17:00−20s2210017 0.0 10339
20:00−23ssw2210052 0.0 103418